Weather History for Beaver Island, MI

Change the Weather History Date:

Sunday, May 26, 2013

  Actual Average Record
Temperature  
Mean Temperature 47 °F -  
Max Temperature 63 °F 65 °F 78 °F (1965)
Min Temperature 31 °F 44 °F 27 °F (1954)
Degree Days  
Heating Degree Days 18    
Moisture  
Dew Point 32 °F    
Average Humidity 59    
Maximum Humidity 97    
Minimum Humidity 27    
Precipitation  
Precipitation 0.00 in - - ()
Sea Level Pressure  
Sea Level Pressure 30.32 in    
Wind  
Wind Speed 2 mph (SSW)    
Max Wind Speed 9 mph    
Max Gust Speed -    
Visibility 10 miles    
Events      
Averages and records for this station are not official NWS values.
T = Trace of Precipitation, MM = Missing Value Source: NWS Daily Summary

Daily Weather History Graph

Daily Weather History Graph

Search for Another Location

Airport:

Trip Planner

Search our weather history database for the weather conditions in past years. The results will help you decide how hot, cold, wet, or windy it might be!

Date:

Astronomy

May. 26, 2013 Rise Set
Actual Time 6:00 AM EDT 9:19 PM EDT
Civil Twilight 5:23 AM EDT 9:55 PM EDT
Nautical Twilight 4:36 AM EDT 10:43 PM EDT
Astronomical Twilight 3:36 AM EDT 11:43 PM EDT
Moon 11:04 PM EDT (5/26) 7:29 AM EDT (5/26)
Length of Visible Light 16h 31m
Length of Day
15h 19m
Waning Gibbous, 97% of the Moon is Illuminated
May 26
Waning Gibbous
May 31
Last Quarter
Jun 8
New
Jun 16
First Quarter
Jun 23
Full

Hourly Weather History & Observations

Time (EDT) Temp. Windchill Dew Point Humidity Pressure Visibility Wind Dir Wind Speed Gust Speed Precip Events Conditions
12:15 AM 36.0 °F - 32.0 °F 86% 30.34 in 10.0 mi Calm Calm - N/A   Clear
12:35 AM 37.2 °F - 31.6 °F 80% 30.34 in 10.0 mi Calm Calm - N/A   Clear
12:55 AM 36.7 °F - 32.0 °F 83% 30.34 in 10.0 mi Calm Calm - N/A   Clear
1:15 AM 36.0 °F - 32.2 °F 86% 30.34 in 10.0 mi Calm Calm - N/A   Clear
1:35 AM 35.6 °F - 32.5 °F 89% 30.34 in 10.0 mi Calm Calm - N/A   Clear
1:55 AM 34.7 °F - 32.2 °F 91% 30.34 in 10.0 mi Calm Calm - N/A   Clear
2:15 AM 34.2 °F - 31.8 °F 91% 30.34 in 10.0 mi Calm Calm - N/A   Clear
2:35 AM 33.3 °F - 31.6 °F 94% 30.34 in 10.0 mi Calm Calm - N/A   Clear
2:55 AM 34.0 °F - 32.0 °F 92% 30.34 in 10.0 mi Calm Calm - N/A   Clear
3:14 AM 33.1 °F - 31.6 °F 94% 30.34 in 10.0 mi Calm Calm - N/A   Clear
3:35 AM 32.9 °F - 31.6 °F 95% 30.34 in 10.0 mi Calm Calm - N/A   Clear
3:55 AM 32.2 °F - 31.1 °F 96% 30.33 in 10.0 mi Calm Calm - N/A   Clear
4:14 AM 32.7 °F - 31.6 °F 96% 30.33 in 10.0 mi Calm Calm - N/A   Clear
4:35 AM 32.9 °F - 32.0 °F 96% 30.34 in 10.0 mi Calm Calm - N/A   Clear
4:55 AM 32.9 °F - 31.8 °F 96% 30.33 in 10.0 mi Calm Calm - N/A   Clear
5:15 AM 32.7 °F - 32.0 °F 97% 30.33 in 10.0 mi Calm Calm - N/A   Clear
5:35 AM 31.6 °F - 30.4 °F 95% 30.34 in 10.0 mi Calm Calm - N/A   Clear
5:55 AM 32.2 °F - 31.5 °F 97% 30.34 in 5.0 mi Calm Calm - N/A   Clear
6:15 AM 32.4 °F - 31.6 °F 97% 30.36 in 10.0 mi Calm Calm - N/A   Clear
6:35 AM 32.9 °F - 32.0 °F 96% 30.36 in 10.0 mi Calm Calm - N/A   Clear
6:55 AM 34.2 °F - 32.9 °F 95% 30.36 in 10.0 mi Calm Calm - N/A   Clear
7:15 AM 36.3 °F - 34.9 °F 95% 30.35 in 10.0 mi Calm Calm - N/A   Clear
7:35 AM 42.6 °F - 40.6 °F 93% 30.36 in 10.0 mi Calm Calm - N/A   Clear
7:54 AM 46.2 °F 44.1 °F 40.3 °F 80% 30.36 in 10.0 mi East 4.6 mph - N/A   Clear
8:15 AM 49.3 °F - 39.0 °F 68% 30.37 in 10.0 mi East 5.8 mph - N/A   Clear
8:35 AM 50.9 °F - 36.9 °F 59% 30.38 in 10.0 mi East 3.5 mph - N/A   Clear
8:55 AM 52.0 °F - 37.0 °F 57% 30.38 in 10.0 mi ESE 4.6 mph - N/A   Clear
9:15 AM 53.6 °F - 36.5 °F 52% 30.39 in 10.0 mi ESE 3.5 mph - N/A   Clear
9:35 AM 55.8 °F - 34.7 °F 45% 30.39 in 10.0 mi SSE 4.6 mph - N/A   Clear
9:55 AM 57.2 °F - 33.8 °F 41% 30.37 in 10.0 mi ESE 6.9 mph - N/A   Clear
10:15 AM 58.3 °F - 33.1 °F 39% 30.38 in 10.0 mi SSE 4.6 mph - N/A   Clear
10:35 AM 58.3 °F - 34.0 °F 40% 30.37 in 10.0 mi East 9.2 mph - N/A   Clear
10:55 AM 58.5 °F - 33.6 °F 39% 30.37 in 10.0 mi East 6.9 mph - N/A   Clear
11:15 AM 58.8 °F - 32.4 °F 37% 30.36 in 10.0 mi East 6.9 mph - N/A   Clear
11:34 AM 60.3 °F - 30.9 °F 33% 30.36 in 10.0 mi East 5.8 mph - N/A   Clear
11:55 AM 60.4 °F - 28.4 °F 30% 30.36 in 10.0 mi ENE 5.8 mph - N/A   Clear
12:15 PM 60.8 °F - 28.4 °F 29% 30.36 in 10.0 mi ESE 4.6 mph - N/A   Clear
12:35 PM 60.8 °F - 27.1 °F 28% 30.36 in 10.0 mi Calm Calm - N/A   Clear
12:55 PM 60.6 °F - 32.0 °F 34% 30.36 in 10.0 mi WSW 3.5 mph - N/A   Clear
1:15 PM 62.1 °F - 28.8 °F 28% 30.35 in 10.0 mi Calm Calm - N/A   Clear
1:35 PM 61.2 °F - 27.3 °F 28% 30.35 in 10.0 mi ENE 4.6 mph - N/A   Clear
1:54 PM 63.0 °F - 30.9 °F 30% 30.35 in 10.0 mi WSW 9.2 mph - N/A   Clear
2:15 PM 63.3 °F - 30.7 °F 29% 30.34 in 10.0 mi West 6.9 mph - N/A   Clear
2:35 PM 62.8 °F - 30.4 °F 30% 30.34 in 10.0 mi WSW 8.1 mph - N/A   Clear
2:55 PM 63.0 °F - 30.6 °F 30% 30.33 in 10.0 mi WSW 9.2 mph - N/A   Clear
3:15 PM 62.8 °F - 29.7 °F 29% 30.33 in 10.0 mi WSW 6.9 mph - N/A   Clear
3:34 PM 63.7 °F - 30.4 °F 29% 30.32 in 10.0 mi West 8.1 mph - N/A   Clear
3:55 PM 62.6 °F - 30.0 °F 29% 30.31 in 10.0 mi West 8.1 mph - N/A   Clear
4:15 PM 62.4 °F - 30.6 °F 30% 30.31 in 10.0 mi West 6.9 mph - N/A   Clear
4:34 PM 63.0 °F - 30.0 °F 29% 30.30 in 10.0 mi West 5.8 mph - N/A   Clear
4:55 PM 62.8 °F - 28.6 °F 27% 30.30 in 10.0 mi WSW 6.9 mph - N/A   Clear
5:15 PM 62.4 °F - 29.1 °F 28% 30.29 in 10.0 mi West 8.1 mph - N/A   Clear
5:35 PM 62.6 °F - 29.5 °F 29% 30.28 in 10.0 mi WSW 6.9 mph - N/A   Clear
5:55 PM 62.1 °F - 29.5 °F 29% 30.28 in 10.0 mi West 3.5 mph - N/A   Clear
6:15 PM 63.5 °F - 29.8 °F 28% 30.27 in 10.0 mi West 5.8 mph - N/A   Clear
6:35 PM 62.6 °F - 30.2 °F 30% 30.27 in 10.0 mi West 4.6 mph - N/A   Clear
6:55 PM 61.3 °F - 28.9 °F 29% 30.27 in 10.0 mi West 3.5 mph - N/A   Clear
7:14 PM 61.7 °F - 30.2 °F 30% 30.26 in 10.0 mi Calm Calm - N/A   Clear
7:35 PM 59.7 °F - 31.1 °F 34% 30.26 in 10.0 mi Calm Calm - N/A   Clear
7:55 PM 58.5 °F - 33.3 °F 39% 30.25 in 10.0 mi Calm Calm - N/A   Clear
8:15 PM 57.2 °F - 33.3 °F 40% 30.25 in 10.0 mi Calm Calm - N/A   Clear
8:35 PM 56.5 °F - 33.8 °F 42% 30.24 in 10.0 mi Calm Calm - N/A   Clear
8:55 PM 50.4 °F - 33.8 °F 53% 30.24 in 10.0 mi NNW 3.5 mph - N/A   Clear
9:15 PM 49.6 °F - 34.7 °F 56% 30.24 in 10.0 mi Calm Calm - N/A   Clear
9:35 PM 48.2 °F - 34.7 °F 60% 30.24 in 10.0 mi Calm Calm - N/A   Clear
9:54 PM 46.0 °F - 34.2 °F 63% 30.24 in 10.0 mi Calm Calm - N/A   Clear
10:15 PM 43.3 °F - 33.4 °F 68% 30.25 in 10.0 mi Calm Calm - N/A   Clear
10:35 PM 43.5 °F - 36.1 °F 75% 30.25 in 10.0 mi Calm Calm - N/A   Clear
10:55 PM 41.9 °F - 35.6 °F 78% 30.25 in 10.0 mi Calm Calm - N/A   Clear
11:15 PM 40.6 °F - 34.3 °F 78% 30.26 in 10.0 mi Calm Calm - N/A   Clear
11:34 PM 40.3 °F - 35.6 °F 83% 30.26 in 10.0 mi Calm Calm - N/A   Clear
11:55 PM 39.4 °F - 34.9 °F 84% 30.26 in 10.0 mi Calm Calm - N/A   Clear